Time,TemperatureF,DewpointF,PressureIn,WindDirection,WindDirectionDegrees,WindSpeedMPH,WindSpeedGustMPH,Humidity,HourlyPrecipIn,Conditions,Clouds,dailyrainin,SoftwareType,DateUTC
2013-06-18 00:00:00,57.2,-99.9,29.95,East,91,0.0,0.0,-999,0.00,,,0.00,homebrew,2013-06-18 07:00:00,
2013-06-18 00:05:00,57.1,-99.9,29.95,East,91,0.0,0.0,-999,0.00,,,0.00,homebrew,2013-06-18 07:05:00,
2013-06-18 00:10:00,57.1,-99.9,29.95,East,91,0.0,0.0,-999,0.00,,,0.00,homebrew,2013-06-18 07:10:00,
2013-06-18 00:15:00,57.0,-99.9,29.95,East,91,0.0,0.0,-999,0.00,,,0.00,homebrew,2013-06-18 07:15:00,
2013-06-18 00:20:00,57.0,-99.9,29.94,East,91,0.0,0.0,-999,0.00,,,0.00,homebrew,2013-06-18 07:20:00,
2013-06-18 00:25:00,57.0,-99.9,29.94,East,91,0.0,0.0,-999,0.00,,,0.00,homebrew,2013-06-18 07:25:00,
2013-06-18 00:30:00,56.8,-99.9,29.94,East,91,0.0,0.0,-999,0.00,,,0.00,homebrew,2013-06-18 07:30:00,
2013-06-18 00:35:00,56.6,-99.9,29.94,East,91,0.0,0.0,-999,0.00,,,0.00,homebrew,2013-06-18 07:35:00,
2013-06-18 00:45:00,56.3,-99.9,29.94,East,91,0.0,0.0,-999,0.00,,,0.00,homebrew,2013-06-18 07:45:00,
2013-06-18 00:50:00,56.1,-99.9,29.94,East,91,0.0,0.0,-999,0.00,,,0.00,homebrew,2013-06-18 07:50:00,
2013-06-18 01:00:00,56.3,-99.9,29.94,East,91,0.0,0.0,-999,0.00,,,0.00,homebrew,2013-06-18 08:00:00,
2013-06-18 01:05:00,56.4,-99.9,29.94,East,91,0.0,0.0,-999,0.00,,,0.00,homebrew,2013-06-18 08:05:00,
2013-06-18 01:10:00,56.4,-99.9,29.94,East,91,0.0,0.0,-999,0.00,,,0.00,homebrew,2013-06-18 08:10:00,
2013-06-18 01:15:00,56.6,-99.9,29.94,East,91,0.0,0.0,-999,0.00,,,0.00,homebrew,2013-06-18 08:15:00,
2013-06-18 01:20:00,56.6,-99.9,29.94,East,91,0.0,0.0,-999,0.00,,,0.00,homebrew,2013-06-18 08:20:00,
2013-06-18 01:25:00,56.6,-99.9,29.94,East,91,0.0,0.0,-999,0.00,,,0.00,homebrew,2013-06-18 08:25:00,
2013-06-18 01:30:00,56.6,-99.9,29.94,East,91,0.0,0.0,-999,0.00,,,0.00,homebrew,2013-06-18 08:30:00,
2013-06-18 01:35:00,56.6,-99.9,29.94,East,91,0.0,0.0,-999,0.00,,,0.00,homebrew,2013-06-18 08:35:00,
2013-06-18 01:40:00,56.5,-99.9,29.94,East,91,0.0,0.0,-999,0.00,,,0.00,homebrew,2013-06-18 08:40:00,
2013-06-18 01:50:00,56.4,-99.9,29.94,ESE,121,0.6,4.2,-999,0.00,,,0.00,homebrew,2013-06-18 08:50:00,
2013-06-18 01:55:00,56.4,-99.9,29.94,SSE,163,0.2,2.7,-999,0.00,,,0.00,homebrew,2013-06-18 08:55:00,
2013-06-18 02:05:00,56.1,-99.9,29.93,SSE,167,0.0,0.0,-999,0.00,,,0.00,homebrew,2013-06-18 09:05:00,
2013-06-18 02:10:00,56.0,-99.9,29.94,SSE,167,0.0,0.0,-999,0.00,,,0.00,homebrew,2013-06-18 09:10:00,
2013-06-18 02:15:00,55.8,-99.9,29.94,SSE,167,0.0,0.0,-999,0.00,,,0.00,homebrew,2013-06-18 09:15:00,
2013-06-18 02:20:00,55.7,-99.9,29.94,SSE,167,0.0,0.0,-999,0.00,,,0.00,homebrew,2013-06-18 09:20:00,
2013-06-18 02:25:00,55.6,-99.9,29.94,SSE,167,0.0,0.0,-999,0.00,,,0.00,homebrew,2013-06-18 09:25:00,
2013-06-18 02:30:00,55.5,-99.9,29.93,SSE,167,0.0,0.0,-999,0.00,,,0.00,homebrew,2013-06-18 09:30:00,
2013-06-18 02:35:00,55.3,-99.9,29.93,SSE,167,0.0,0.0,-999,0.00,,,0.00,homebrew,2013-06-18 09:35:00,
2013-06-18 02:40:00,55.2,-99.9,29.93,SSE,167,0.0,0.0,-999,0.00,,,0.00,homebrew,2013-06-18 09:40:00,
2013-06-18 02:45:00,55.2,-99.9,29.93,SSE,167,0.0,0.0,-999,0.00,,,0.00,homebrew,2013-06-18 09:45:00,
2013-06-18 02:55:00,55.0,-99.9,29.93,SSE,167,0.0,0.0,-999,0.00,,,0.00,homebrew,2013-06-18 09:55:00,
2013-06-18 03:00:00,54.8,-99.9,29.94,SSE,167,0.0,0.0,-999,0.00,,,0.00,homebrew,2013-06-18 10:00:00,
2013-06-18 03:05:00,54.6,-99.9,29.94,SSE,167,0.0,0.0,-999,0.00,,,0.00,homebrew,2013-06-18 10:05:00,
2013-06-18 03:10:00,54.7,-99.9,29.94,SSE,167,0.0,0.0,-999,0.00,,,0.00,homebrew,2013-06-18 10:10:00,
2013-06-18 03:15:00,54.7,-99.9,29.94,SSE,167,0.0,0.0,-999,0.00,,,0.00,homebrew,2013-06-18 10:15:00,
2013-06-18 03:20:00,54.6,-99.9,29.94,SSE,167,0.0,0.0,-999,0.00,,,0.00,homebrew,2013-06-18 10:20:00,
2013-06-18 03:25:00,54.6,-99.9,29.94,SSE,167,0.0,0.0,-999,0.00,,,0.00,homebrew,2013-06-18 10:25:00,
2013-06-18 03:30:00,54.7,-99.9,29.94,SSE,167,0.0,0.0,-999,0.00,,,0.00,homebrew,2013-06-18 10:30:00,
2013-06-18 03:35:00,54.9,-99.9,29.94,SSE,168,0.1,2.0,-999,0.00,,,0.00,homebrew,2013-06-18 10:35:00,
2013-06-18 03:45:00,55.2,-99.9,29.94,South,175,0.0,0.0,-999,0.00,,,0.00,homebrew,2013-06-18 10:45:00,
2013-06-18 03:50:00,55.1,-99.9,29.94,South,175,0.0,0.0,-999,0.00,,,0.00,homebrew,2013-06-18 10:50:00,
2013-06-18 04:00:00,55.3,-99.9,29.94,South,175,0.0,0.0,-999,0.00,,,0.00,homebrew,2013-06-18 11:00:00,
2013-06-18 04:05:00,55.4,-99.9,29.94,South,175,0.0,0.0,-999,0.00,,,0.00,homebrew,2013-06-18 11:05:00,
2013-06-18 04:10:00,55.3,-99.9,29.94,South,175,0.0,0.0,-999,0.00,,,0.00,homebrew,2013-06-18 11:10:00,
2013-06-18 04:15:00,55.2,-99.9,29.94,South,175,0.0,0.0,-999,0.00,,,0.00,homebrew,2013-06-18 11:15:00,
2013-06-18 04:20:00,55.2,-99.9,29.94,South,175,0.0,0.0,-999,0.00,,,0.00,homebrew,2013-06-18 11:20:00,
2013-06-18 04:25:00,55.1,-99.9,29.94,South,175,0.0,0.0,-999,0.00,,,0.00,homebrew,2013-06-18 11:25:00,
2013-06-18 04:30:00,55.1,-99.9,29.94,South,175,0.0,0.0,-999,0.00,,,0.00,homebrew,2013-06-18 11:30:00,
2013-06-18 04:35:00,55.1,-99.9,29.94,South,175,0.0,0.0,-999,0.00,,,0.00,homebrew,2013-06-18 11:35:00,
2013-06-18 04:40:00,55.4,-99.9,29.94,South,175,0.0,0.0,-999,0.00,,,0.00,homebrew,2013-06-18 11:40:00,
2013-06-18 04:50:00,55.3,-99.9,29.94,South,175,0.0,0.0,-999,0.00,,,0.00,homebrew,2013-06-18 11:50:00,
2013-06-18 04:55:00,55.2,-99.9,29.94,South,175,0.0,0.0,-999,0.00,,,0.00,homebrew,2013-06-18 11:55:00,
2013-06-18 05:05:00,55.4,-99.9,29.94,SW,228,0.4,2.9,-999,0.00,,,0.00,homebrew,2013-06-18 12:05:00,
2013-06-18 05:10:00,55.6,-99.9,29.94,WSW,251,0.0,0.0,-999,0.00,,,0.00,homebrew,2013-06-18 12:10:00,
2013-06-18 05:15:00,55.7,-99.9,29.94,WSW,251,0.0,0.0,-999,0.00,,,0.00,homebrew,2013-06-18 12:15:00,
2013-06-18 05:20:00,55.8,-99.9,29.94,WSW,251,0.0,0.0,-999,0.00,,,0.00,homebrew,2013-06-18 12:20:00,
2013-06-18 05:25:00,55.8,-99.9,29.94,SW,214,0.9,3.2,-999,0.00,,,0.00,homebrew,2013-06-18 12:25:00,
2013-06-18 05:30:00,55.8,-99.9,29.94,SSW,197,0.6,2.7,-999,0.00,,,0.00,homebrew,2013-06-18 12:30:00,
2013-06-18 05:35:00,55.8,-99.9,29.94,SSE,162,0.3,2.8,-999,0.00,,,0.00,homebrew,2013-06-18 12:35:00,
2013-06-18 05:40:00,55.8,-99.9,29.94,SSW,198,0.5,1.8,-999,0.00,,,0.00,homebrew,2013-06-18 12:40:00,
2013-06-18 05:45:00,55.8,-99.9,29.94,West,260,0.0,1.2,-999,0.00,,,0.00,homebrew,2013-06-18 12:45:00,
2013-06-18 05:55:00,55.8,-99.9,29.94,West,260,0.0,0.0,-999,0.00,,,0.00,homebrew,2013-06-18 12:55:00,
2013-06-18 06:00:00,55.8,-99.9,29.94,West,260,0.0,0.0,-999,0.00,,,0.00,homebrew,2013-06-18 13:00:00,
2013-06-18 06:10:00,55.9,-99.9,29.94,West,260,0.0,0.0,-999,0.00,,,0.00,homebrew,2013-06-18 13:10:00,
2013-06-18 06:15:00,55.9,-99.9,29.94,West,260,0.0,0.0,-999,0.00,,,0.00,homebrew,2013-06-18 13:15:00,
2013-06-18 06:20:00,55.8,-99.9,29.94,WSW,237,0.2,2.1,-999,0.00,,,0.00,homebrew,2013-06-18 13:20:00,
2013-06-18 06:25:00,55.8,-99.9,29.94,SSW,208,0.0,0.0,-999,0.00,,,0.00,homebrew,2013-06-18 13:25:00,
2013-06-18 06:30:00,56.0,-99.9,29.94,SSW,208,0.0,0.0,-999,0.00,,,0.00,homebrew,2013-06-18 13:30:00,
2013-06-18 06:35:00,56.1,-99.9,29.94,SSW,208,0.0,0.0,-999,0.00,,,0.00,homebrew,2013-06-18 13:35:00,
2013-06-18 06:40:00,56.2,-99.9,29.94,SSW,208,0.0,0.0,-999,0.00,,,0.00,homebrew,2013-06-18 13:40:00,
2013-06-18 06:45:00,56.2,-99.9,29.94,SSW,208,0.0,0.0,-999,0.00,,,0.00,homebrew,2013-06-18 13:45:00,
2013-06-18 06:50:00,56.3,-99.9,29.94,SSW,208,0.0,0.0,-999,0.00,,,0.00,homebrew,2013-06-18 13:50:00,
2013-06-18 07:00:00,56.1,-99.9,29.94,South,189,0.0,0.0,-999,0.00,,,0.00,homebrew,2013-06-18 14:00:00,
2013-06-18 07:05:00,56.1,-99.9,29.94,South,188,0.1,0.4,-999,0.00,,,0.00,homebrew,2013-06-18 14:05:00,
2013-06-18 07:15:00,56.3,-99.9,29.94,SSE,156,0.0,0.0,-999,0.00,,,0.00,homebrew,2013-06-18 14:15:00,
2013-06-18 07:20:00,57.2,-99.9,29.94,South,184,0.6,3.4,-999,0.00,,,0.00,homebrew,2013-06-18 14:20:00,
2013-06-18 07:25:00,57.7,-99.9,29.94,South,184,1.2,4.4,-999,0.00,,,0.00,homebrew,2013-06-18 14:25:00,
2013-06-18 07:30:00,58.3,-99.9,29.94,SSE,154,0.4,2.4,-999,0.00,,,0.00,homebrew,2013-06-18 14:30:00,
2013-06-18 07:35:00,58.7,-99.9,29.94,South,176,1.6,5.0,-999,0.00,,,0.00,homebrew,2013-06-18 14:35:00,
2013-06-18 07:40:00,59.0,-99.9,29.94,SSW,212,2.3,7.3,-999,0.00,,,0.00,homebrew,2013-06-18 14:40:00,
2013-06-18 07:50:00,59.6,-99.9,29.94,SW,220,2.8,6.5,-999,0.00,,,0.00,homebrew,2013-06-18 14:50:00,
2013-06-18 07:55:00,59.6,-99.9,29.94,SSW,203,2.4,7.4,-999,0.00,,,0.00,homebrew,2013-06-18 14:55:00,
2013-06-18 08:05:00,59.8,-99.9,29.94,SSW,197,2.4,6.5,-999,0.00,,,0.00,homebrew,2013-06-18 15:05:00,
2013-06-18 08:10:00,60.2,-99.9,29.94,SW,224,2.7,7.0,-999,0.00,,,0.00,homebrew,2013-06-18 15:10:00,
2013-06-18 08:15:00,60.1,-99.9,29.94,SW,227,2.7,6.5,-999,0.00,,,0.00,homebrew,2013-06-18 15:15:00,
2013-06-18 08:20:00,60.0,-99.9,29.94,SSW,206,1.6,5.9,-999,0.00,,,0.00,homebrew,2013-06-18 15:20:00,
2013-06-18 08:25:00,60.9,-99.9,29.94,South,190,2.0,7.7,-999,0.00,,,0.00,homebrew,2013-06-18 15:25:00,
2013-06-18 08:30:00,61.1,-99.9,29.94,South,183,0.8,5.6,-999,0.00,,,0.00,homebrew,2013-06-18 15:30:00,
2013-06-18 08:35:00,61.8,-99.9,29.94,SSW,196,1.0,6.4,-999,0.00,,,0.00,homebrew,2013-06-18 15:35:00,
2013-06-18 08:40:00,61.2,-99.9,29.94,SW,230,1.4,4.8,-999,0.00,,,0.00,homebrew,2013-06-18 15:40:00,
2013-06-18 08:50:00,60.7,-99.9,29.94,South,171,1.1,5.8,-999,0.00,,,0.00,homebrew,2013-06-18 15:50:00,
2013-06-18 08:55:00,60.4,-99.9,29.93,SW,228,3.1,8.5,-999,0.00,,,0.00,homebrew,2013-06-18 15:55:00,
2013-06-18 09:00:00,60.2,-99.9,29.93,WSW,251,3.0,6.7,-999,0.00,,,0.00,homebrew,2013-06-18 16:00:00,
2013-06-18 09:10:00,61.5,-99.9,29.94,SSW,201,2.1,6.0,-999,0.00,,,0.00,homebrew,2013-06-18 16:10:00,
2013-06-18 09:15:00,61.9,-99.9,29.94,SSW,210,1.9,6.3,-999,0.00,,,0.00,homebrew,2013-06-18 16:15:00,
2013-06-18 09:20:00,62.7,-99.9,29.93,SSW,195,2.1,6.7,-999,0.00,,,0.00,homebrew,2013-06-18 16:20:00,
2013-06-18 09:25:00,63.1,-99.9,29.93,SSW,211,2.0,7.5,-999,0.00,,,0.00,homebrew,2013-06-18 16:25:00,
2013-06-18 09:30:00,63.4,-99.9,29.93,South,183,1.8,7.6,-999,0.00,,,0.00,homebrew,2013-06-18 16:30:00,
2013-06-18 09:35:00,63.9,-99.9,29.93,SSW,208,1.5,6.0,-999,0.00,,,0.00,homebrew,2013-06-18 16:35:00,
2013-06-18 09:45:00,64.8,-99.9,29.93,South,191,1.7,4.9,-999,0.00,,,0.00,homebrew,2013-06-18 16:45:00,
2013-06-18 09:50:00,64.2,-99.9,29.93,SSE,153,0.6,3.8,-999,0.00,,,0.00,homebrew,2013-06-18 16:50:00,
2013-06-18 10:00:00,63.0,-99.9,29.93,SSW,207,1.8,5.5,-999,0.00,,,0.00,homebrew,2013-06-18 17:00:00,
2013-06-18 10:05:00,64.5,-99.9,29.93,SSW,195,1.8,5.7,-999,0.00,,,0.00,homebrew,2013-06-18 17:05:00,
2013-06-18 10:10:00,64.2,-99.9,29.92,WSW,246,2.5,6.0,-999,0.00,,,0.00,homebrew,2013-06-18 17:10:00,
2013-06-18 10:15:00,62.9,-99.9,29.92,SW,227,3.9,7.1,-999,0.00,,,0.00,homebrew,2013-06-18 17:15:00,
2013-06-18 10:20:00,62.4,-99.9,29.92,SW,225,3.0,8.6,-999,0.00,,,0.00,homebrew,2013-06-18 17:20:00,
2013-06-18 10:25:00,64.2,-99.9,29.92,SSE,154,0.6,5.3,-999,0.00,,,0.00,homebrew,2013-06-18 17:25:00,
2013-06-18 10:30:00,64.7,-99.9,29.92,South,188,1.8,7.4,-999,0.00,,,0.00,homebrew,2013-06-18 17:30:00,
2013-06-18 10:35:00,65.1,-99.9,29.92,SSW,196,2.0,5.3,-999,0.00,,,0.00,homebrew,2013-06-18 17:35:00,
2013-06-18 10:40:00,65.6,-99.9,29.92,SSW,211,2.6,8.0,-999,0.00,,,0.00,homebrew,2013-06-18 17:40:00,
2013-06-18 10:50:00,65.3,-99.9,29.92,SW,235,1.8,6.0,-999,0.00,,,0.00,homebrew,2013-06-18 17:50:00,
2013-06-18 10:55:00,64.5,-99.9,29.92,SW,222,3.3,8.0,-999,0.00,,,0.00,homebrew,2013-06-18 17:55:00,
2013-06-18 11:05:00,63.7,-99.9,29.91,WSW,241,1.8,7.4,-999,0.00,,,0.00,homebrew,2013-06-18 18:05:00,
2013-06-18 11:10:00,64.1,-99.9,29.91,SSW,195,1.8,5.0,-999,0.00,,,0.00,homebrew,2013-06-18 18:10:00,
2013-06-18 11:15:00,65.1,-99.9,29.91,South,189,1.1,4.3,-999,0.00,,,0.00,homebrew,2013-06-18 18:15:00,
2013-06-18 11:20:00,65.4,-99.9,29.91,SSW,202,3.2,7.5,-999,0.00,,,0.00,homebrew,2013-06-18 18:20:00,
2013-06-18 11:25:00,66.0,-99.9,29.91,SSE,154,1.1,5.5,-999,0.00,,,0.00,homebrew,2013-06-18 18:25:00,
2013-06-18 11:30:00,66.6,-99.9,29.91,South,174,1.0,4.8,-999,0.00,,,0.00,homebrew,2013-06-18 18:30:00,
2013-06-18 11:40:00,66.6,-99.9,29.91,SSW,211,1.9,5.1,-999,0.00,,,0.00,homebrew,2013-06-18 18:40:00,
2013-06-18 11:45:00,66.6,-99.9,29.91,SE,131,1.6,5.8,-999,0.00,,,0.00,homebrew,2013-06-18 18:45:00,
2013-06-18 11:55:00,68.0,-99.9,29.91,SSW,201,1.7,4.7,-999,0.00,,,0.00,homebrew,2013-06-18 18:55:00,
2013-06-18 12:00:00,67.7,-99.9,29.91,NE,56,0.4,2.4,-999,0.00,,,0.00,homebrew,2013-06-18 19:00:00,
2013-06-18 12:05:00,66.7,-99.9,29.91,SW,219,2.9,6.2,-999,0.00,,,0.00,homebrew,2013-06-18 19:05:00,
2013-06-18 12:10:00,65.7,-99.9,29.91,WSW,252,2.1,6.0,-999,0.00,,,0.00,homebrew,2013-06-18 19:10:00,
2013-06-18 12:15:00,66.2,-99.9,29.91,SW,230,3.7,8.8,-999,0.00,,,0.00,homebrew,2013-06-18 19:15:00,
2013-06-18 12:20:00,65.9,-99.9,29.91,SW,222,3.3,8.3,-999,0.00,,,0.00,homebrew,2013-06-18 19:20:00,
2013-06-18 12:30:00,65.4,-99.9,29.90,WNW,296,2.5,5.5,-999,0.00,,,0.00,homebrew,2013-06-18 19:30:00,
2013-06-18 12:35:00,65.6,-99.9,29.90,SSW,200,2.3,6.8,-999,0.00,,,0.00,homebrew,2013-06-18 19:35:00,
2013-06-18 12:45:00,66.8,-99.9,29.90,WSW,256,0.5,3.0,-999,0.00,,,0.00,homebrew,2013-06-18 19:45:00,
2013-06-18 12:50:00,66.6,-99.9,29.90,West,262,3.8,7.8,-999,0.00,,,0.00,homebrew,2013-06-18 19:50:00,
2013-06-18 12:55:00,66.7,-99.9,29.90,West,267,3.6,6.7,-999,0.00,,,0.00,homebrew,2013-06-18 19:55:00,
2013-06-18 13:00:00,66.9,-99.9,29.90,WSW,246,3.4,7.7,-999,0.00,,,0.00,homebrew,2013-06-18 20:00:00,
2013-06-18 13:05:00,66.8,-99.9,29.90,SW,236,1.8,5.5,-999,0.00,,,0.00,homebrew,2013-06-18 20:05:00,
2013-06-18 13:10:00,67.6,-99.9,29.89,SSW,201,0.2,2.3,-999,0.00,,,0.00,homebrew,2013-06-18 20:10:00,
2013-06-18 13:15:00,69.6,-99.9,29.89,SSW,205,1.7,5.3,-999,0.00,,,0.00,homebrew,2013-06-18 20:15:00,
2013-06-18 13:20:00,68.9,-99.9,29.89,SSW,203,2.2,6.6,-999,0.00,,,0.00,homebrew,2013-06-18 20:20:00,
2013-06-18 13:25:00,69.2,-99.9,29.89,WSW,243,3.3,8.1,-999,0.00,,,0.00,homebrew,2013-06-18 20:25:00,
2013-06-18 13:35:00,72.3,-99.9,29.89,SSW,196,2.0,6.0,-999,0.00,,,0.00,homebrew,2013-06-18 20:35:00,
2013-06-18 13:40:00,72.6,-99.9,29.89,SW,225,2.7,6.8,-999,0.00,,,0.00,homebrew,2013-06-18 20:40:00,
2013-06-18 13:45:00,71.8,-99.9,29.89,SW,215,3.1,8.8,-999,0.00,,,0.00,homebrew,2013-06-18 20:45:00,
2013-06-18 13:50:00,71.2,-99.9,29.89,SW,222,3.6,8.0,-999,0.00,,,0.00,homebrew,2013-06-18 20:50:00,
2013-06-18 13:55:00,71.8,-99.9,29.89,SSW,213,2.5,6.8,-999,0.00,,,0.00,homebrew,2013-06-18 20:55:00,
2013-06-18 14:00:00,70.7,-99.9,29.88,WSW,240,3.3,7.1,-999,0.00,,,0.00,homebrew,2013-06-18 21:00:00,
2013-06-18 14:05:00,71.2,-99.9,29.88,West,272,2.7,8.0,-999,0.00,,,0.00,homebrew,2013-06-18 21:05:00,
2013-06-18 14:10:00,72.8,-99.9,29.88,SW,226,1.0,4.0,-999,0.00,,,0.00,homebrew,2013-06-18 21:10:00,
2013-06-18 14:15:00,73.7,-99.9,29.88,SSW,199,2.7,9.2,-999,0.00,,,0.00,homebrew,2013-06-18 21:15:00,
2013-06-18 14:25:00,72.5,-99.9,29.88,SW,214,3.4,9.6,-999,0.00,,,0.00,homebrew,2013-06-18 21:25:00,
2013-06-18 14:30:00,72.6,-99.9,29.88,SSW,195,2.7,6.7,-999,0.00,,,0.00,homebrew,2013-06-18 21:30:00,
2013-06-18 14:40:00,73.4,-99.9,29.88,SSW,210,2.9,10.9,-999,0.00,,,0.00,homebrew,2013-06-18 21:40:00,
2013-06-18 14:45:00,73.5,-99.9,29.88,South,180,2.9,7.3,-999,0.00,,,0.00,homebrew,2013-06-18 21:45:00,
2013-06-18 14:55:00,73.2,-99.9,29.87,SSW,202,2.9,9.1,-999,0.00,,,0.00,homebrew,2013-06-18 21:55:00,
2013-06-18 15:00:00,73.1,-99.9,29.87,SW,216,2.6,6.0,-999,0.00,,,0.00,homebrew,2013-06-18 22:00:00,
2013-06-18 15:05:00,73.6,-99.9,29.87,South,181,1.8,7.1,-999,0.00,,,0.00,homebrew,2013-06-18 22:05:00,
2013-06-18 15:15:00,74.7,-99.9,29.87,SSE,150,2.3,6.7,-999,0.00,,,0.00,homebrew,2013-06-18 22:15:00,
2013-06-18 15:20:00,74.4,-99.9,29.87,SW,220,3.8,9.1,-999,0.00,,,0.00,homebrew,2013-06-18 22:20:00,
2013-06-18 15:30:00,71.4,-99.9,29.87,SSW,205,2.5,7.4,-999,0.00,,,0.00,homebrew,2013-06-18 22:30:00,
2013-06-18 15:35:00,71.7,-99.9,29.86,SSW,198,3.3,6.7,-999,0.00,,,0.00,homebrew,2013-06-18 22:35:00,
2013-06-18 15:40:00,73.3,-99.9,29.86,SSE,168,2.6,7.1,-999,0.00,,,0.00,homebrew,2013-06-18 22:40:00,
2013-06-18 15:45:00,74.1,-99.9,29.86,SSW,194,2.1,6.6,-999,0.00,,,0.00,homebrew,2013-06-18 22:45:00,
2013-06-18 15:50:00,71.1,-99.9,29.86,SW,222,4.2,8.5,-999,0.00,,,0.00,homebrew,2013-06-18 22:50:00,
2013-06-18 15:55:00,72.0,-99.9,29.86,SW,234,4.0,6.3,-999,0.00,,,0.00,homebrew,2013-06-18 22:55:00,
2013-06-18 16:05:00,74.0,-99.9,29.86,SSW,203,3.0,8.8,-999,0.00,,,0.00,homebrew,2013-06-18 23:05:00,
2013-06-18 16:10:00,73.5,-99.9,29.86,SE,137,1.2,3.5,-999,0.00,,,0.00,homebrew,2013-06-18 23:10:00,
2013-06-18 16:15:00,72.5,-99.9,29.86,SSW,200,0.7,4.4,-999,0.00,,,0.00,homebrew,2013-06-18 23:15:00,
2013-06-18 16:20:00,71.9,-99.9,29.86,SSW,203,1.1,4.0,-999,0.00,,,0.00,homebrew,2013-06-18 23:20:00,
2013-06-18 16:25:00,70.4,-99.9,29.86,SW,228,3.3,8.3,-999,0.00,,,0.00,homebrew,2013-06-18 23:25:00,
2013-06-18 16:30:00,70.2,-99.9,29.85,SSE,160,0.4,2.0,-999,0.00,,,0.00,homebrew,2013-06-18 23:30:00,
2013-06-18 16:35:00,71.8,-99.9,29.85,SE,127,2.0,5.8,-999,0.00,,,0.00,homebrew,2013-06-18 23:35:00,
2013-06-18 16:40:00,74.6,-99.9,29.85,South,189,1.5,5.8,-999,0.00,,,0.00,homebrew,2013-06-18 23:40:00,
2013-06-18 16:45:00,75.4,-99.9,29.85,South,176,2.0,5.0,-999,0.00,,,0.00,homebrew,2013-06-18 23:45:00,
2013-06-18 16:55:00,73.5,-99.9,29.85,South,189,2.1,7.8,-999,0.00,,,0.00,homebrew,2013-06-18 23:55:00,
2013-06-18 17:00:00,73.0,-99.9,29.85,SSW,196,2.9,7.8,-999,0.00,,,0.00,homebrew,2013-06-19 00:00:00,
2013-06-18 17:10:00,73.9,-99.9,29.84,SW,216,3.0,7.1,-999,0.00,,,0.00,homebrew,2013-06-19 00:10:00,
2013-06-18 17:15:00,73.9,-99.9,29.84,SSW,198,3.3,8.7,-999,0.00,,,0.00,homebrew,2013-06-19 00:15:00,
2013-06-18 17:20:00,73.8,-99.9,29.84,SSW,206,3.3,9.3,-999,0.00,,,0.00,homebrew,2013-06-19 00:20:00,
2013-06-18 17:25:00,72.7,-99.9,29.84,SSW,211,2.5,6.8,-999,0.00,,,0.00,homebrew,2013-06-19 00:25:00,
2013-06-18 17:30:00,74.4,-99.9,29.84,SSW,192,0.4,4.3,-999,0.00,,,0.00,homebrew,2013-06-19 00:30:00,
2013-06-18 17:35:00,75.0,-99.9,29.83,SW,228,2.5,10.5,-999,0.00,,,0.00,homebrew,2013-06-19 00:35:00,
2013-06-18 17:40:00,73.4,-99.9,29.84,SW,216,3.1,8.0,-999,0.00,,,0.00,homebrew,2013-06-19 00:40:00,
2013-06-18 17:45:00,73.5,-99.9,29.84,SSW,204,2.8,9.1,-999,0.00,,,0.00,homebrew,2013-06-19 00:45:00,
2013-06-18 17:50:00,72.5,-99.9,29.84,WSW,243,3.1,7.8,-999,0.00,,,0.00,homebrew,2013-06-19 00:50:00,
2013-06-18 18:00:00,70.3,-99.9,29.84,SW,220,3.2,8.6,-999,0.00,,,0.00,homebrew,2013-06-19 01:00:00,
2013-06-18 18:05:00,69.6,-99.9,29.84,SW,227,3.2,7.5,-999,0.00,,,0.00,homebrew,2013-06-19 01:05:00,
2013-06-18 18:15:00,69.3,-99.9,29.85,SSW,199,1.9,7.1,-999,0.00,,,0.00,homebrew,2013-06-19 01:15:00,
2013-06-18 18:20:00,69.4,-99.9,29.85,SSW,205,2.8,6.8,-999,0.00,,,0.00,homebrew,2013-06-19 01:20:00,
2013-06-18 18:25:00,69.6,-99.9,29.85,SSW,211,3.5,9.8,-999,0.00,,,0.00,homebrew,2013-06-19 01:25:00,
2013-06-18 18:30:00,70.5,-99.9,29.85,SW,218,3.1,8.9,-999,0.00,,,0.00,homebrew,2013-06-19 01:30:00,
2013-06-18 18:35:00,70.4,-99.9,29.85,SSW,213,3.9,9.8,-999,0.00,,,0.00,homebrew,2013-06-19 01:35:00,
2013-06-18 18:40:00,69.8,-99.9,29.85,SW,227,4.2,9.3,-999,0.00,,,0.00,homebrew,2013-06-19 01:40:00,
2013-06-18 18:50:00,69.2,-99.9,29.85,SW,236,4.1,10.3,-999,0.00,,,0.00,homebrew,2013-06-19 01:50:00,
2013-06-18 18:55:00,69.5,-99.9,29.85,SW,218,4.0,9.7,-999,0.00,,,0.00,homebrew,2013-06-19 01:55:00,
2013-06-18 19:05:00,68.6,-99.9,29.86,SW,224,5.4,11.4,-999,0.00,,,0.00,homebrew,2013-06-19 02:05:00,
2013-06-18 19:10:00,67.7,-99.9,29.86,SW,227,4.8,13.1,-999,0.00,,,0.00,homebrew,2013-06-19 02:10:00,
2013-06-18 19:15:00,67.3,-99.9,29.86,SW,216,4.7,12.5,-999,0.00,,,0.00,homebrew,2013-06-19 02:15:00,
2013-06-18 19:20:00,67.0,-99.9,29.86,SSW,209,3.6,9.7,-999,0.00,,,0.00,homebrew,2013-06-19 02:20:00,
2013-06-18 19:25:00,66.9,-99.9,29.86,SSW,210,4.7,11.7,-999,0.00,,,0.00,homebrew,2013-06-19 02:25:00,
2013-06-18 19:30:00,66.9,-99.9,29.86,SSW,209,4.2,13.8,-999,0.00,,,0.00,homebrew,2013-06-19 02:30:00,
2013-06-18 19:35:00,66.7,-99.9,29.86,SW,218,4.3,10.3,-999,0.00,,,0.00,homebrew,2013-06-19 02:35:00,
2013-06-18 19:40:00,66.4,-99.9,29.86,SW,220,4.7,11.2,-999,0.00,,,0.00,homebrew,2013-06-19 02:40:00,
2013-06-18 19:45:00,66.2,-99.9,29.86,SSW,208,3.7,9.3,-999,0.00,,,0.00,homebrew,2013-06-19 02:45:00,
2013-06-18 19:55:00,65.6,-99.9,29.87,SW,235,4.9,11.7,-999,0.00,,,0.00,homebrew,2013-06-19 02:55:00,
2013-06-18 20:00:00,65.5,-99.9,29.87,SSW,209,3.6,14.2,-999,0.00,,,0.00,homebrew,2013-06-19 03:00:00,
2013-06-18 20:05:00,65.3,-99.9,29.87,SW,220,4.8,12.9,-999,0.00,,,0.00,homebrew,2013-06-19 03:05:00,
2013-06-18 20:10:00,65.3,-99.9,29.87,SW,217,3.5,8.3,-999,0.00,,,0.00,homebrew,2013-06-19 03:10:00,
2013-06-18 20:15:00,65.0,-99.9,29.88,SSW,209,3.8,15.2,-999,0.00,,,0.00,homebrew,2013-06-19 03:15:00,
2013-06-18 20:20:00,64.7,-99.9,29.88,SW,222,4.8,9.8,-999,0.00,,,0.00,homebrew,2013-06-19 03:20:00,
2013-06-18 20:25:00,64.2,-99.9,29.88,SW,214,3.6,10.9,-999,0.00,,,0.00,homebrew,2013-06-19 03:25:00,
2013-06-18 20:30:00,64.2,-99.9,29.88,SSW,210,3.0,8.2,-999,0.00,,,0.00,homebrew,2013-06-19 03:30:00,
2013-06-18 20:35:00,64.0,-99.9,29.89,SSW,203,2.4,6.6,-999,0.00,,,0.00,homebrew,2013-06-19 03:35:00,
2013-06-18 20:45:00,63.8,-99.9,29.89,SSW,198,1.7,5.2,-999,0.00,,,0.00,homebrew,2013-06-19 03:45:00,
2013-06-18 20:50:00,63.6,-99.9,29.89,SSW,199,1.8,8.8,-999,0.00,,,0.00,homebrew,2013-06-19 03:50:00,
2013-06-18 21:00:00,63.2,-99.9,29.89,SSW,211,3.3,7.8,-999,0.00,,,0.00,homebrew,2013-06-19 04:00:00,
2013-06-18 21:05:00,63.0,-99.9,29.89,SSW,207,2.5,6.3,-999,0.00,,,0.00,homebrew,2013-06-19 04:05:00,
2013-06-18 21:10:00,62.8,-99.9,29.89,SSW,213,3.5,8.9,-999,0.00,,,0.00,homebrew,2013-06-19 04:10:00,
2013-06-18 21:15:00,62.6,-99.9,29.89,SSW,203,1.4,6.9,-999,0.00,,,0.00,homebrew,2013-06-19 04:15:00,
2013-06-18 21:20:00,62.4,-99.9,29.89,SSW,213,2.9,9.6,-999,0.00,,,0.00,homebrew,2013-06-19 04:20:00,
2013-06-18 21:25:00,62.3,-99.9,29.89,SSW,213,2.7,7.1,-999,0.00,,,0.00,homebrew,2013-06-19 04:25:00,
2013-06-18 21:35:00,61.9,-99.9,29.90,SSW,210,2.2,5.4,-999,0.00,,,0.00,homebrew,2013-06-19 04:35:00,
2013-06-18 21:40:00,61.7,-99.9,29.90,SW,220,3.0,9.2,-999,0.00,,,0.00,homebrew,2013-06-19 04:40:00,
2013-06-18 21:50:00,61.4,-99.9,29.90,SW,223,4.0,12.9,-999,0.00,,,0.00,homebrew,2013-06-19 04:50:00,
2013-06-18 21:55:00,61.2,-99.9,29.90,SW,215,2.5,7.7,-999,0.00,,,0.00,homebrew,2013-06-19 04:55:00,
2013-06-18 22:00:00,61.0,-99.9,29.90,WSW,239,3.0,6.5,-999,0.00,,,0.00,homebrew,2013-06-19 05:00:00,
2013-06-18 22:05:00,60.7,-99.9,29.90,SW,231,2.7,6.8,-999,0.00,,,0.00,homebrew,2013-06-19 05:05:00,
2013-06-18 22:10:00,60.5,-99.9,29.90,SW,228,3.4,8.5,-999,0.00,,,0.00,homebrew,2013-06-19 05:10:00,
2013-06-18 22:15:00,60.3,-99.9,29.90,SW,235,3.3,7.3,-999,0.00,,,0.00,homebrew,2013-06-19 05:15:00,
2013-06-18 22:20:00,60.0,-99.9,29.90,SW,227,3.1,7.4,-999,0.00,,,0.00,homebrew,2013-06-19 05:20:00,
2013-06-18 22:25:00,59.9,-99.9,29.90,SW,232,3.0,7.1,-999,0.00,,,0.00,homebrew,2013-06-19 05:25:00,
2013-06-18 22:30:00,59.6,-99.9,29.90,WSW,241,1.8,4.7,-999,0.00,,,0.00,homebrew,2013-06-19 05:30:00,
2013-06-18 22:40:00,59.2,-99.9,29.90,SW,230,2.0,4.7,-999,0.00,,,0.00,homebrew,2013-06-19 05:40:00,
2013-06-18 22:45:00,59.1,-99.9,29.90,SW,233,2.1,4.8,-999,0.00,,,0.00,homebrew,2013-06-19 05:45:00,
2013-06-18 22:55:00,58.9,-99.9,29.90,SSW,194,1.7,5.9,-999,0.00,,,0.00,homebrew,2013-06-19 05:55:00,
2013-06-18 23:00:00,58.9,-99.9,29.90,South,182,1.2,5.0,-999,0.00,,,0.00,homebrew,2013-06-19 06:00:00,
2013-06-18 23:05:00,58.7,-99.9,29.91,SW,216,2.4,5.5,-999,0.00,,,0.00,homebrew,2013-06-19 06:05:00,
2013-06-18 23:10:00,58.7,-99.9,29.91,SW,214,2.0,6.0,-999,0.00,,,0.00,homebrew,2013-06-19 06:10:00,
2013-06-18 23:15:00,58.5,-99.9,29.91,SSW,196,0.6,4.1,-999,0.00,,,0.00,homebrew,2013-06-19 06:15:00,
2013-06-18 23:20:00,58.3,-99.9,29.91,South,178,0.9,4.2,-999,0.00,,,0.00,homebrew,2013-06-19 06:20:00,
2013-06-18 23:30:00,58.1,-99.9,29.91,SSW,196,1.9,6.3,-999,0.00,,,0.00,homebrew,2013-06-19 06:30:00,
2013-06-18 23:35:00,58.0,-99.9,29.91,SSW,204,2.1,5.4,-999,0.00,,,0.00,homebrew,2013-06-19 06:35:00,
2013-06-18 23:45:00,58.0,-99.9,29.91,South,173,0.7,3.7,-999,0.00,,,0.00,homebrew,2013-06-19 06:45:00,
2013-06-18 23:50:00,57.9,-99.9,29.91,South,173,1.2,4.4,-999,0.00,,,0.00,homebrew,2013-06-19 06:50:00,